Helicity
23 24 24 15 18 8 2 -10 -13 -10 5 2 -3 -8 2 1 -11 -26 4 9 27 9 34 -15 -37 9 47 43 49 39 108 58 63 63 47 43 46 43 58 39 82 67 127 167 155 217 286
21 22 22 20 12 3 -1 -11 -20 -16 -2 1 -2 -8 10 7 -2 -20 -3 7 21 27 2 -3 -39 55 82 50 47 47 93 42 60 56 52 46 44 26 57 56 63 165 125 145 131 156 136
16 21 21 10 8 8 9 -6 -26 -22 -5 6 9 5 22 22 3 -1 -7 5 8 32 17 -7 17 49 45 54 47 65 43 37 36 44 55 46 90 70 130 192 221 129 154 136 133 134 153
22 14 9 6 6 1 -2 -11 -29 -36 -21 -4 5 1 12 28 18 2 -3 11 25 28 18 3 37 32 29 28 38 66 43 15 48 48 60 62 109 95 96 139 146 96 67 94 106 106 99
16 11 13 7 3 2 -1 -5 -9 -31 -37 -15 -4 6 7 10 12 -3 4 -6 41 28 13 52 89 33 20 19 31 42 51 34 35 92 88 93 92 151 160 77 99 112 69 51 78 109 131
12 6 7 6 2 4 8 5 2 -20 -32 -18 -3 13 12 2 4 8 12 15 24 28 36 59 60 40 9 37 53 55 41 40 47 97 125 110 138 127 110 99 107 72 36 56 80 110 111
4 -5 -5 -5 1 3 2 -0 -0 -7 -28 -22 -5 12 19 6 5 -4 26 59 52 55 41 45 32 30 29 47 34 59 38 31 66 70 147 118 130 123 91 52 33 20 33 48 134 122 101
10 -4 -5 -12 -7 -2 -2 -4 -3 -7 -13 -17 -6 13 23 13 -10 -9 39 56 88 48 24 28 22 -5 4 46 52 65 39 80 56 67 77 133 91 69 59 58 57 79 53 59 173 103 101
8 6 5 -4 -8 -8 -10 -10 -12 -8 -15 -9 -5 6 9 10 -3 47 55 74 41 59 30 47 16 13 17 19 53 42 39 70 41 43 64 106 74 55 65 72 68 66 63 92 92 85 139
6 10 9 7 -1 -14 -15 -15 -16 -20 -24 -12 2 3 7 22 27 49 47 18 10 14 30 69 57 54 68 48 41 31 38 82 109 48 57 74 54 64 104 79 63 50 35 53 116 63 77
8 10 8 8 -2 -7 -17 -19 -13 -19 -29 -22 -3 13 17 19 31 39 11 -33 -16 9 33 55 57 69 86 84 96 69 32 105 67 88 115 102 86 96 74 64 65 27 53 80 84 46 56
18 17 11 6 4 -1 -3 -11 -7 -3 -19 -32 -18 9 12 40 31 16 -26 -34 6 32 55 66 50 38 57 58 111 67 93 115 141 85 76 74 97 70 48 31 30 159 162 156 80 62 98
26 32 23 19 15 10 9 12 5 3 -2 -21 -22 4 24 26 36 2 -14 25 64 58 49 47 65 50 36 68 93 103 63 85 130 148 82 64 80 93 95 63 73 140 128 132 122 159 114
40 32 38 34 32 32 23 24 22 9 5 -5 -6 17 54 28 18 3 26 54 106 117 55 74 67 49 54 74 35 59 101 78 62 116 179 77 115 93 118 112 204 160 162 227 149 98 54
48 43 41 42 45 53 43 40 37 29 14 15 26 64 53 52 28 34 49 118 134 131 62 37 21 28 31 36 90 86 62 86 144 100 240 187 97 103 93 169 166 112 134 107 89 109 143
46 44 45 50 50 56 50 47 46 41 22 43 63 62 78 37 41 65 105 107 151 78 60 50 55 58 42 73 59 29 67 49 85 117 119 204 203 182 138 68 139 66 103 134 141 112 140
48 53 49 45 53 53 52 47 43 51 32 40 57 71 105 50 55 104 107 114 125 57 55 77 39 47 54 81 33 -7 74 70 48 60 84 216 221 202 294 279 196 178 212 185 151 200 126
66 61 55 49 47 54 54 58 49 50 45 43 64 97 106 53 90 115 92 129 126 80 39 21 23 19 31 76 52 38 22 -2 4 99 117 149 107 165 201 217 263 293 184 215 290 167 142
74 55 53 55 53 54 59 64 60 54 43 37 73 100 75 60 110 112 116 97 98 94 61 73 49 43 93 85 94 35 66 83 77 45 47 195 115 149 196 239 285 266 227 230 158 209 135
81 74 60 56 53 57 66 71 73 65 33 32 58 117 92 77 82 89 107 112 128 92 93 81 52 53 26 52 93 105 68 51 29 71 45 1 65 161 140 164 240 263 244 233 237 263 193
64 58 59 58 51 58 68 84 90 88 37 37 77 127 112 171 133 90 103 114 101 113 86 60 69 29 33 18 84 82 74 59 -1 52 93 107 -23 -1 114 109 96 110 120 205 272 236 260
72 62 58 56 57 60 75 74 101 132 52 78 95 104 97 107 107 112 129 109 96 115 114 92 72 56 46 16 50 94 118 81 48 37 48 89 89 55 -33 -3 55 75 113 137 162 217 211
68 64 61 56 60 64 71 71 77 124 83 91 81 82 84 152 137 144 174 166 166 156 105 91 97 87 56 71 122 109 93 79 87 76 36 37 44 27 -15 47 18 28 66 111 147 113 130
67 69 60 62 63 67 68 66 69 71 88 64 76 66 99 168 139 168 176 171 140 133 124 108 89 86 141 109 83 37 33 33 40 48 69 72 60 80 63 -38 29 38 76 147 203 290 307
58 67 68 65 68 61 63 61 71 70 53 65 68 80 111 151 164 129 147 164 129 106 102 85 75 128 164 109 105 90 55 -6 3 -2 60 93 106 102 102 54 88 14 67 119 154 160 217
52 55 54 65 67 59 55 60 60 59 57 46 73 72 99 141 216 198 173 176 162 144 115 110 122 138 137 133 108 124 111 70 54 -12 35 133 139 147 117 108 61 58 85 127 112 122 119
43 59 67 77 59 43 48 53 58 52 65 54 87 67 84 142 196 159 198 192 171 151 147 106 117 111 114 119 87 81 76 139 168 103 60 63 117 99 102 135 120 124 129 139 78 88 120
57 72 71 54 39 43 49 57 55 51 56 70 111 86 99 152 169 132 146 147 155 151 150 224 150 104 68 74 83 75 82 105 173 198 178 78 98 124 127 116 86 189 155 158 127 103 117
58 55 54 41 43 46 54 50 55 46 45 60 102 103 106 119 187 141 125 125 113 137 175 151 121 98 123 126 112 120 96 111 124 64 64 135 190 208 207 186 140 157 178 176 153 117 166
Wind_Speed
58 57 59 56 56 53 51 50 44 40 38 38 38 35 39 26 18 11 27 39 42 31 43 42 38 24 23 39 54 35 42 33 35 36 33 32 34 34 43 42 33 52 36 36 29 25 24
59 60 57 56 56 54 52 48 43 39 36 38 37 30 13 17 13 7 17 29 31 29 24 42 34 13 34 45 35 39 41 24 31 33 35 32 35 34 46 44 39 32 31 25 29 28 22
58 60 57 57 56 52 52 48 42 38 31 35 37 26 6 7 7 6 12 24 22 32 33 31 27 15 40 50 35 42 37 23 30 34 34 37 39 36 32 34 23 19 28 28 32 33 36
57 56 58 58 56 54 51 50 45 38 30 29 34 30 12 7 6 8 10 18 31 34 34 23 19 26 35 35 43 42 33 21 31 37 42 40 41 37 40 22 29 38 35 44 39 36 35
59 59 58 59 58 54 51 51 46 39 32 26 31 30 21 10 15 15 16 16 33 31 20 22 23 24 27 32 38 28 23 22 21 33 42 36 33 35 31 34 39 42 49 52 42 38 37
58 59 60 58 57 57 53 50 48 45 34 26 26 28 27 19 23 13 17 19 29 26 22 21 26 25 23 29 30 19 20 13 14 23 30 36 37 43 44 46 53 49 59 49 50 45 45
58 59 60 58 58 57 56 53 51 47 39 31 24 27 25 24 22 18 34 30 27 25 16 19 26 28 30 27 19 19 10 8 21 22 37 36 46 55 45 45 55 55 52 56 39 40 50
57 59 60 59 57 58 59 57 52 49 42 36 27 23 23 21 24 22 24 26 33 35 28 20 22 36 30 28 21 12 3 12 16 23 28 36 50 47 51 53 61 61 57 52 41 43 50
57 58 60 59 57 58 60 62 57 50 47 39 29 24 27 29 29 29 30 32 34 39 26 24 1 3 31 23 26 10 10 19 21 29 31 46 57 52 55 54 58 59 58 50 51 41 51
55 58 60 60 60 59 61 62 61 55 49 44 36 35 34 36 30 30 28 32 35 35 18 23 25 29 23 29 32 11 18 23 32 31 32 67 57 52 56 60 49 61 55 55 42 42 61
55 57 59 61 62 62 62 63 63 61 54 44 43 37 34 33 30 26 30 33 33 29 21 28 28 29 27 23 28 24 14 30 29 40 38 51 49 47 51 46 44 62 49 49 42 53 58
53 56 59 63 64 65 65 64 64 63 57 47 42 38 34 32 28 28 28 27 27 20 19 21 29 30 27 25 36 28 19 32 43 37 37 68 51 59 63 59 54 39 34 37 46 57 81
52 55 59 63 64 66 68 67 65 63 58 48 40 33 30 30 32 28 29 23 25 24 22 19 24 32 36 29 36 36 32 33 36 44 40 48 64 55 53 50 48 39 38 52 59 61 77
53 55 60 62 64 68 70 69 66 65 61 50 38 29 28 26 27 24 22 25 30 28 17 26 31 37 42 42 42 41 52 47 43 56 60 48 57 39 45 46 45 41 43 56 66 74 77
54 56 60 63 66 69 71 73 69 68 63 51 36 29 28 29 27 23 23 30 33 28 20 15 13 14 39 49 49 48 50 60 56 46 58 59 76 34 37 44 42 51 60 47 84 74 69
53 57 60 63 66 70 72 73 73 72 64 47 35 31 29 29 26 22 22 28 28 21 18 14 15 17 19 43 50 47 50 48 55 51 55 63 70 56 37 39 45 45 50 59 69 69 73
53 58 61 63 66 70 73 74 76 77 66 42 34 35 31 28 23 23 29 27 30 20 17 18 13 12 28 49 56 60 55 51 48 49 48 54 67 60 49 53 46 45 47 49 60 73 79
54 58 61 64 66 71 73 75 77 79 68 40 37 41 34 27 29 28 31 31 31 23 16 14 15 13 16 50 60 65 64 54 45 53 60 52 56 80 76 59 69 66 59 52 66 66 84
55 58 61 64 66 70 73 75 77 77 62 41 38 37 30 27 39 35 31 32 28 27 22 22 17 18 30 35 44 61 63 53 52 54 52 49 56 64 65 67 67 75 73 77 62 75 87
56 59 61 64 65 69 71 74 77 78 61 39 40 44 36 29 32 38 43 41 36 27 25 20 20 26 22 30 53 59 63 57 53 55 55 54 61 64 69 61 62 77 73 73 74 80 89
57 58 60 63 64 68 71 74 76 77 60 39 42 42 39 46 40 40 38 40 41 39 25 22 24 20 23 25 45 66 70 67 63 59 59 59 78 76 82 76 70 67 75 77 79 76 78
54 58 60 62 63 66 69 72 75 78 57 43 46 45 38 42 41 41 39 42 41 39 35 32 30 28 29 30 47 75 76 72 75 62 62 58 73 68 80 71 71 78 74 78 79 81 95
55 57 60 60 63 65 67 68 71 72 58 46 42 39 42 42 43 46 46 46 45 42 35 30 34 35 35 48 68 71 70 71 72 73 68 70 70 71 81 64 68 82 82 75 72 73 81
55 57 59 60 61 64 64 64 66 64 59 46 45 42 46 52 47 48 48 46 47 44 45 38 38 39 46 64 75 78 76 78 79 80 73 79 73 71 83 70 91 67 57 60 72 65 61
55 57 57 58 60 60 62 62 61 60 53 48 44 45 48 55 51 51 50 50 47 43 47 47 42 47 57 63 57 62 66 74 78 83 76 72 75 77 81 84 81 72 57 55 60 69 60
54 56 57 58 59 59 60 60 61 58 52 46 43 42 44 54 54 49 53 49 56 56 55 43 40 49 46 45 46 52 60 75 73 67 61 65 68 77 72 81 88 62 51 48 50 76 50
53 56 57 59 60 58 61 60 60 56 52 45 42 39 44 52 48 46 53 53 47 51 53 53 49 46 40 40 44 50 62 70 77 78 71 66 69 86 87 85 72 58 52 45 58 61 41
51 54 59 58 59 61 62 63 59 57 51 42 43 37 43 50 50 42 41 47 46 44 52 54 52 30 30 28 31 35 40 52 63 64 67 71 70 72 75 82 92 53 50 59 49 38 31
50 54 56 59 62 63 63 64 60 57 50 42 44 36 36 41 50 39 36 34 32 36 43 37 34 34 30 30 35 38 38 44 55 71 56 71 64 63 59 62 49 45 49 44 42 30 24
Wind_Direction
36 37 34 34 33 33 32 32 33 34 32 29 26 25 21 33 45 79 235 252 251 220 270 327 331 306 288 266 257 285 276 258 237 240 238 235 241 246 255 260 258 261 269 272 276 275 275
36 35 36 35 34 33 32 32 33 34 33 30 28 28 30 38 52 111 205 227 220 198 192 320 337 336 275 263 280 279 278 257 234 232 237 236 244 251 263 264 257 269 269 270 271 272 263
36 35 36 35 34 34 33 32 33 33 32 30 28 30 300 265 60 121 168 208 174 214 213 208 349 320 273 249 286 276 279 263 239 233 235 241 256 249 264 262 268 257 269 271 269 266 271
37 37 36 35 35 34 33 32 32 31 31 29 29 30 31 257 64 87 126 151 213 213 212 144 45 303 292 286 275 274 274 270 251 239 243 244 254 256 262 265 266 266 266 265 267 263 265
34 34 35 34 34 34 34 32 31 31 31 28 30 31 37 46 49 60 91 138 221 191 39 44 26 331 323 299 279 283 276 268 246 241 243 249 247 256 258 253 261 259 267 262 268 263 267
34 34 34 34 34 33 33 32 31 30 31 30 31 33 35 43 43 115 177 135 50 45 41 18 359 349 321 306 292 293 282 259 239 233 239 241 245 253 252 248 255 263 261 265 265 264 261
34 32 32 33 33 32 32 31 29 29 32 32 35 37 39 43 57 100 335 54 52 9 0 356 341 337 325 310 312 292 285 195 260 231 240 236 241 244 247 252 260 266 265 263 266 271 261
33 31 30 30 31 30 29 29 29 28 30 34 37 37 42 48 63 90 79 39 15 342 344 168 334 301 316 305 308 295 180 259 225 226 235 240 242 252 257 257 258 264 263 261 271 274 266
28 28 27 27 28 28 26 26 28 29 30 33 35 43 44 53 69 73 40 22 23 345 354 347 12 179 312 307 301 254 205 267 242 237 225 249 257 254 254 256 257 260 262 262 270 272 270
24 24 23 24 24 25 24 24 25 28 30 33 38 47 53 62 69 58 51 17 14 9 32 342 326 315 311 299 297 293 252 271 266 245 247 254 254 254 254 254 255 259 264 265 265 268 269
20 21 20 20 20 21 22 22 22 24 27 32 37 47 57 52 63 77 37 9 9 15 48 354 332 326 311 294 303 286 253 270 266 263 249 261 256 254 251 252 255 261 267 265 265 268 269
17 17 17 16 16 16 17 19 19 19 22 28 33 45 57 60 67 51 41 36 25 59 40 28 339 321 309 287 291 298 265 277 274 271 260 256 267 255 256 258 258 262 267 270 272 270 263
15 14 12 12 12 12 12 13 14 14 16 21 28 41 52 53 46 45 34 61 38 30 49 45 356 314 298 297 284 284 270 255 263 264 261 266 260 264 260 255 254 244 250 264 266 263 264
10 10 8 8 8 7 6 8 10 10 10 14 22 36 44 50 48 59 80 43 19 32 40 4 339 316 298 291 284 281 279 263 257 264 270 260 263 243 253 247 250 232 239 258 263 264 268
7 7 6 5 4 3 3 2 5 6 6 10 20 31 33 39 44 58 44 15 14 21 32 29 4 333 304 288 286 282 274 270 266 255 263 265 260 262 251 246 244 252 239 248 264 271 273
4 4 4 4 2 0 359 359 0 2 4 12 20 20 25 33 41 50 21 4 7 23 24 25 2 353 322 300 286 282 278 281 271 264 264 271 267 265 253 246 250 248 260 251 255 264 265
2 1 1 2 2 360 357 358 358 357 2 15 19 13 26 34 43 27 358 358 1 10 13 358 341 322 315 300 286 284 283 281 274 275 266 271 261 264 260 245 238 242 251 252 259 260 263
358 359 358 360 0 358 357 356 356 355 359 16 15 6 21 30 10 9 355 357 4 358 6 344 336 290 291 300 289 281 277 279 287 279 273 266 276 258 257 264 261 257 249 242 257 258 259
354 355 356 356 358 357 356 355 355 355 3 11 9 7 21 24 358 354 355 350 353 345 342 347 339 339 326 311 302 281 281 287 286 281 278 276 269 265 262 262 260 253 253 255 248 262 258
350 352 353 354 355 356 356 355 353 353 360 12 7 0 11 11 7 356 349 347 347 357 347 340 328 324 314 305 294 290 281 285 287 283 279 283 270 265 265 269 269 256 251 251 254 255 256
346 349 351 352 354 353 354 354 353 353 359 10 7 1 5 355 356 353 352 348 343 343 350 347 337 320 315 307 304 289 284 283 283 283 279 275 269 268 268 270 274 271 256 249 249 252 257
345 346 348 349 351 352 353 353 354 352 360 8 359 358 2 353 353 351 350 347 343 342 341 338 327 324 317 299 300 290 289 284 278 282 276 277 270 276 270 270 269 266 267 258 252 253 257
340 342 344 347 348 349 351 352 353 356 2 5 6 5 358 354 350 346 344 343 342 343 337 330 328 321 311 308 296 292 290 284 279 277 276 272 273 273 269 274 271 265 262 261 260 258 260
339 341 342 344 345 347 349 352 352 357 3 5 3 360 352 344 344 342 341 338 333 331 324 327 324 315 319 304 297 291 287 282 277 273 272 268 269 270 267 271 262 270 274 269 260 263 263
336 338 340 342 344 344 346 349 352 353 360 1 2 358 350 341 343 337 338 338 335 332 326 321 320 317 313 308 305 297 289 283 278 270 269 266 264 265 262 262 268 270 274 272 265 263 263
334 336 338 339 341 342 344 346 348 349 354 356 359 1 353 342 344 346 339 340 336 333 331 329 335 327 320 312 301 292 286 282 277 275 272 266 263 260 261 260 259 269 275 279 276 264 268
332 334 336 338 338 340 341 343 344 346 350 352 354 359 351 341 345 347 340 339 343 338 333 332 336 333 321 307 293 286 284 282 274 269 265 262 259 254 255 258 264 269 273 279 264 270 275
335 335 334 336 337 337 339 340 343 345 347 352 351 357 351 343 342 347 348 342 342 343 338 340 340 346 335 324 319 309 297 286 278 273 266 259 257 257 256 255 255 273 269 263 277 288 278
334 334 335 335 336 336 338 339 342 344 345 347 346 356 356 346 343 350 348 352 353 350 345 349 344 344 347 344 340 328 312 303 287 273 271 258 259 259 261 262 275 277 272 274 279 281 279